Overview Statistics Trail Chart Weather Telemetry Raw packets
 

This is the latest recevied weather packets stored in our database for station/object KF6RAL-6. If no packets are shown the sender has not sent any weather packets the latest 10 day(s).

<< 50 51 52 53 54 55 56 >>
Time Temp. Humidity Pressure Rain* Wind** Luminosity Snow
1788157447 21.11° C 58% 1015.2 hPa 0 mm - - -
1788157026 21.11° C 55% 1015.3 hPa 0 mm - - -
1788156604 21.67° C 56% 1015.3 hPa 0 mm - - -
1788156184 21.67° C 58% 1015.3 hPa 0 mm - - -
1788155764 21.67° C 57% 1015.2 hPa 0 mm - - -
1788155342 21.67° C 54% 1015.1 hPa 0 mm - - -
1788154920 21.67° C 54% 1015 hPa 0 mm - - -
1788154500 20.56° C 60% 1015.4 hPa 0 mm - - -
1788154078 20.56° C 61% 1015.4 hPa 0 mm - - -
1788153660 20.56° C 61% 1015.4 hPa 0 mm - - -
1788153236 20.56° C 59% 1015.4 hPa 0 mm - - -
1788152816 21.11° C 61% 1015.2 hPa 0 mm - - -
1788152394 21.11° C 62% 1015.3 hPa 0 mm - - -
1788151973 21.67° C 57% 1014.8 hPa 0 mm - - -
1788151131 21.67° C 56% 1014.7 hPa 0 mm - - -
1788150710 22.22° C 54% 1015.4 hPa 0 mm - - -
1788149868 21.67° C 56% 1014.7 hPa 0 mm - - -
1788149447 21.67° C 56% 1014.9 hPa 0 mm - - -
1788149026 21.67° C 57% 1014.9 hPa 0 mm - - -
1788148605 21.67° C 58% 1014.8 hPa 0 mm - - -
1788148184 21.67° C 57% 1014.7 hPa 0 mm - - -
1788147763 21.67° C 58% 1014.7 hPa 0 mm - - -
1788147342 21.67° C 59% 1015.3 hPa 0 mm - - -
1788146921 21.67° C 58% 1015.2 hPa 0 mm - - -
1788146500 22.22° C 54% 1014.5 hPa 0 mm - - -

* Rain latest hour (hover to see other rain measurements)
** Current wind speed in m/s (hover to see current wind gust speed)